GW4858 Weather Reports


time (UTC)temp
C
wind
direction
speed
KPH
gust
KPH
rain 1hr
cm
rain 24hr
cm
rain mn
cm
humidity
%
barometer
mb
20260905102438 21 307 0.0 0.0 0.00 0.00 0.00 81 1013.3
20260905101933 21 307 0.0 0.0 0.00 0.00 0.00 81 1013.6
20260905101431 21 307 0.0 0.0 0.00 0.00 0.00 80 1013.4
20260905100926 21 307 0.0 0.0 0.00 0.00 0.00 79 1013.5
20260905100416 21 307 0.0 0.0 0.00 0.00 0.00 78 1013.5
20260905095915 21 307 0.0 0.0 0.00 0.00 0.00 78 1013.4
20260905095410 21 307 0.0 0.0 0.00 0.00 0.00 76 1013.4
20260905094904 21 307 0.0 0.0 0.00 0.00 0.00 75 1013.4
20260905094400 22 306 0.0 0.0 0.00 0.00 0.00 74 1013.7
20260905093858 22 306 0.0 0.0 0.00 0.00 0.00 73 1013.5
20260905093354 22 325 0.0 0.0 0.00 0.00 0.00 72 1013.7
20260905092850 22 325 0.0 0.0 0.00 0.00 0.00 72 1013.7
20260905092350 22 325 0.0 0.0 0.00 0.00 0.00 73 1013.3
20260905091845 22 325 0.0 0.0 0.00 0.00 0.00 73 1013.3
20260905091339 22 324 0.0 0.0 0.00 0.00 0.00 73 1013.4
20260905090838 22 337 0.0 0.0 0.00 0.00 0.00 73 1013.4
20260905090334 22 335 0.0 1.6 0.00 0.00 0.00 74 1013.3
20260905085834 22 345 0.0 0.0 0.00 0.00 0.00 75 1013.4
20260905085333 22 335 0.0 0.0 0.00 0.00 0.00 75 1013.3
20260905084824 22 325 0.0 1.6 0.00 0.00 0.00 76 1013.3
20260905084323 22 315 0.0 0.0 0.00 0.00 0.00 77 1013.4
20260905083818 22 313 0.0 3.2 0.00 0.00 0.00 77 1013.3
20260905083314 22 312 0.0 0.0 0.00 0.00 0.00 77 1013.2
20260905082809 22 314 0.0 0.0 0.00 0.00 0.00 77 1013.3
20260905082307 22 314 0.0 0.0 0.00 0.00 0.00 77 1013.2
20260905081805 22 315 0.0 0.0 0.00 0.00 0.00 77 1013.4
20260905081301 22 315 0.0 0.0 0.00 0.00 0.00 77 1013.2
20260905080759 22 315 0.0 0.0 0.00 0.00 0.00 77 1013.4
20260905080254 22 328 0.0 0.0 0.00 0.00 0.00 77 1013.6
20260905075753 22 328 0.0 0.0 0.00 0.00 0.00 77 1013.6
20260905075252 22 345 0.0 0.0 0.00 0.00 0.00 76 1013.5
20260905074751 22 314 0.0 1.6 0.00 0.00 0.00 76 1013.3
20260905074248 22 315 0.0 0.0 0.00 0.00 0.00 76 1013.5
20260905073743 22 315 0.0 0.0 0.00 0.00 0.00 76 1013.3
20260905073238 22 315 0.0 0.0 0.00 0.00 0.00 75 1013.4
20260905072737 22 315 0.0 0.0 0.00 0.00 0.00 75 1013.6
20260905072233 22 315 0.0 0.0 0.00 0.00 0.00 75 1013.4
20260905071729 22 317 0.0 0.0 0.00 0.00 0.00 74 1013.6
20260905071225 22 311 0.0 0.0 0.00 0.00 0.00 74 1013.5
20260905070720 22 317 0.0 0.0 0.00 0.00 0.00 74 1013.2
20260905070216 23 317 0.0 0.0 0.00 0.00 0.00 74 1013.6
20260905065714 23 324 0.0 0.0 0.00 0.00 0.00 73 1013.5
20260905065209 23 324 0.0 0.0 0.00 0.00 0.00 73 1013.4
20260905064704 23 324 0.0 0.0 0.00 0.00 0.00 73 1013.7
20260905064200 23 324 0.0 0.0 0.00 0.00 0.00 73 1013.5
20260905063658 23 324 0.0 0.0 0.00 0.00 0.00 73 1013.6
20260905063155 23 325 0.0 0.0 0.00 0.00 0.00 72 1013.5
20260905062650 23 325 0.0 0.0 0.00 0.00 0.00 72 1013.4
20260905062149 23 319 0.0 0.0 0.00 0.00 0.00 72 1013.6
20260905061644 23 314 0.0 0.0 0.00 0.00 0.00 71 1013.8
20260905061143 23 359 0.0 0.0 0.00 0.00 0.00 71 1013.6
20260905060639 23 345 1.6 1.6 0.00 0.00 0.00 71 1013.7
20260905060136 23 342 1.6 1.6 0.00 0.00 0.00 71 1013.9
20260905055634 23 338 0.0 1.6 0.00 0.00 0.00 71 1013.8
20260905055130 23 329 0.0 1.6 0.00 0.00 0.00 71 1013.9
20260905054625 23 24 3.2 3.2 0.00 0.00 0.00 70 1014.0
20260905054120 23 332 1.6 3.2 0.00 0.00 0.00 70 1014.1
20260905053615 23 337 0.0 3.2 0.00 0.00 0.00 70 1014.0
20260905053110 23 22 0.0 1.6 0.00 0.00 0.00 71 1013.8
20260905052609 23 346 1.6 1.6 0.00 0.00 0.00 71 1014.0
20260905052104 23 354 0.0 1.6 0.00 0.00 0.00 71 1014.0
20260905051559 23 347 0.0 0.0 0.00 0.00 0.00 71 1014.4
20260905051055 23 306 0.0 0.0 0.00 0.00 0.00 71 1014.2
20260905050551 23 332 0.0 0.0 0.00 0.00 0.00 71 1014.4
20260905050049 23 329 0.0 0.0 0.00 0.00 0.00 70 1014.2
20260905045542 23 329 0.0 0.0 0.00 0.00 0.00 70 1014.3
20260905045038 23 329 0.0 0.0 0.00 0.00 0.00 70 1014.3
20260905044538 23 348 1.6 1.6 0.00 0.00 0.00 70 1014.4
20260905044032 23 349 1.6 3.2 0.00 0.00 0.00 71 1014.4
20260905043532 23 356 0.0 1.6 0.00 0.00 0.00 72 1014.6
20260905043027 23 348 0.0 1.6 0.00 0.00 0.00 72 1014.6
20260905042520 23 335 0.0 0.0 0.00 0.00 0.00 73 1014.6
20260905042016 23 335 0.0 0.0 0.00 0.00 0.00 73 1014.6
20260905041512 23 335 0.0 0.0 0.00 0.00 0.00 73 1014.7
20260905041007 23 335 0.0 0.0 0.00 0.00 0.00 73 1014.8
20260905040506 23 335 0.0 0.0 0.00 0.00 0.00 73 1014.6
20260905040005 23 335 0.0 0.0 0.00 0.08 0.08 73 1014.8
20260905035500 23 335 0.0 0.0 0.00 0.08 0.08 73 1014.7
20260905034958 24 335 0.0 0.0 0.00 0.08 0.08 73 1014.4
20260905034457 24 335 0.0 0.0 0.00 0.08 0.08 73 1014.7
20260905033957 24 335 0.0 0.0 0.00 0.08 0.08 73 1014.6
20260905033456 24 335 0.0 0.0 0.00 0.08 0.08 74 1014.5
20260905032952 24 335 0.0 0.0 0.00 0.08 0.08 74 1014.4
20260905032447 24 335 0.0 0.0 0.00 0.08 0.08 74 1014.3
20260905031942 24 335 0.0 0.0 0.00 0.08 0.08 75 1014.3
20260905031438 24 335 0.0 0.0 0.00 0.08 0.08 75 1014.3
20260905030933 24 335 0.0 0.0 0.00 0.08 0.08 76 1014.3
20260905030428 23 335 0.0 0.0 0.00 0.08 0.08 77 1014.4
20260905025927 23 335 0.0 0.0 0.00 0.08 0.08 78 1014.3
20260905025422 23 335 0.0 0.0 0.00 0.08 0.08 78 1014.3
20260905024919 23 319 0.0 0.0 0.00 0.08 0.08 79 1014.3
20260905024414 23 319 0.0 0.0 0.00 0.08 0.08 79 1014.4
20260905023909 23 319 0.0 0.0 0.00 0.08 0.08 79 1014.3
20260905023404 23 319 0.0 0.0 0.00 0.08 0.08 79 1014.3
20260905022903 23 319 0.0 0.0 0.00 0.08 0.08 79 1014.4
20260905022353 24 319 0.0 0.0 0.00 0.08 0.08 79 1014.3
20260905021848 24 318 0.0 0.0 0.00 0.08 0.08 79 1014.2
20260905021343 24 319 0.0 0.0 0.00 0.08 0.08 79 1014.3
20260905020838 24 319 0.0 0.0 0.00 0.08 0.08 79 1014.5
20260905020332 24 319 0.0 0.0 0.00 0.08 0.08 79 1014.7
20260905015831 24 319 0.0 0.0 0.00 0.08 0.08 79 1014.6
20260905015331 24 319 0.0 0.0 0.00 0.08 0.08 79 1014.6
20260905014825 23 319 0.0 0.0 0.00 0.08 0.08 79 1014.4
20260905014321 24 319 0.0 0.0 0.00 0.08 0.08 79 1014.4
20260905013816 24 319 0.0 0.0 0.00 0.08 0.08 80 1014.5
20260905013312 24 318 0.0 0.0 0.00 0.08 0.08 80 1014.5
20260905012807 24 318 0.0 0.0 0.00 0.08 0.08 80 1014.5
20260905012305 23 318 0.0 0.0 0.00 0.08 0.08 80 1014.5
20260905011759 24 318 0.0 0.0 0.00 0.08 0.08 80 1014.7
20260905011255 24 318 0.0 0.0 0.00 0.08 0.08 79 1014.5
20260905010755 24 318 0.0 0.0 0.00 0.08 0.08 79 1014.5
20260905010250 25 318 0.0 0.0 0.00 0.08 0.08 79 1014.5
20260905005747 25 317 0.0 0.0 0.00 0.08 0.08 78 1014.3
20260905005242 25 317 0.0 0.0 0.00 0.08 0.08 78 1014.3
20260905004741 25 317 0.0 0.0 0.00 0.08 0.08 77 1014.5
20260905004242 25 316 0.0 0.0 0.00 0.08 0.08 77 1014.2
20260905003742 25 315 0.0 0.0 0.00 0.08 0.08 76 1014.1
20260905003238 25 322 0.0 0.0 0.00 0.08 0.08 76 1014.1
20260905002733 25 329 0.0 0.0 0.00 0.08 0.08 75 1014.2
20260905002233 25 340 0.0 0.0 0.00 0.08 0.08 75 1014.0
20260905001728 25 341 0.0 0.0 0.00 0.08 0.08 74 1014.0
20260905001227 25 325 0.0 0.0 0.00 0.08 0.08 74 1014.1
20260905000723 25 325 0.0 0.0 0.00 0.08 0.08 74 1014.1
20260905000219 26 325 0.0 0.0 0.00 0.08 0.08 73 1014.0
20260904235713 26 324 0.0 0.0 0.00 0.08 0.08 73 1014.1
20260904235208 26 323 0.0 0.0 0.00 0.08 0.08 73 1014.0
20260904234703 26 324 0.0 0.0 0.00 0.08 0.08 73 1014.1
20260904234159 26 323 0.0 0.0 0.00 0.08 0.08 72 1014.1
20260904233654 26 323 0.0 0.0 0.00 0.08 0.08 72 1014.3
20260904233150 26 323 0.0 0.0 0.00 0.08 0.08 71 1014.3
20260904232647 26 324 0.0 0.0 0.00 0.08 0.08 71 1014.0
20260904232143 26 323 0.0 0.0 0.00 0.08 0.08 70 1014.0
20260904231638 26 323 0.0 0.0 0.00 0.08 0.08 69 1014.3
20260904231133 26 324 0.0 0.0 0.00 0.08 0.08 69 1014.2
20260904230632 27 325 0.0 0.0 0.00 0.08 0.08 68 1014.1
20260904230128 27 325 0.0 0.0 0.00 0.08 0.08 68 1014.1
20260904225625 27 324 0.0 0.0 0.00 0.08 0.08 67 1014.0
20260904225120 27 324 0.0 0.0 0.00 0.08 0.08 67 1014.1
20260904224615 27 325 0.0 0.0 0.00 0.08 0.08 66 1014.3
20260904224109 28 328 0.0 0.0 0.00 0.08 0.08 65 1014.1
20260904223609 28 326 0.0 0.0 0.00 0.08 0.08 65 1014.4
20260904223104 28 324 0.0 3.2 0.00 0.08 0.08 64 1014.3
20260904222601 28 340 0.0 0.0 0.00 0.08 0.08 63 1014.2
20260904222056 28 321 0.0 1.6 0.00 0.08 0.08 62 1014.2
20260904221555 28 320 0.0 0.0 0.00 0.08 0.08 62 1014.2
20260904221050 28 325 0.0 0.0 0.00 0.08 0.08 62 1013.9
20260904220549 28 311 0.0 0.0 0.00 0.08 0.08 62 1014.0
20260904220040 28 327 0.0 0.0 0.00 0.08 0.08 61 1014.0
20260904215539 28 333 0.0 0.0 0.00 0.08 0.08 61 1014.0
20260904215036 28 323 0.0 0.0 0.00 0.08 0.08 61 1013.9
20260904214531 28 350 0.0 0.0 0.00 0.08 0.08 60 1014.0
20260904214026 29 246 1.6 4.8 0.00 0.08 0.08 59 1014.0
20260904213524 30 326 0.0 3.2 0.00 0.08 0.08 58 1013.8
20260904213021 30 308 4.8 6.4 0.00 0.08 0.08 58 1013.9
20260904212521 30 330 0.0 1.6 0.00 0.08 0.08 58 1013.9
20260904212016 30 329 0.0 3.2 0.00 0.08 0.08 57 1013.7
20260904211515 30 337 0.0 3.2 0.00 0.08 0.08 57 1013.8
20260904211011 30 318 1.6 3.2 0.00 0.08 0.08 56 1013.9
20260904210510 30 148 1.6 3.2 0.00 0.08 0.08 56 1013.9
20260904210006 30 324 0.0 3.2 0.00 0.08 0.08 57 1013.9
20260904205501 30 13 3.2 9.7 0.00 0.08 0.08 58 1014.0
20260904204958 30 9 3.2 4.8 0.00 0.08 0.08 57 1014.1
20260904204454 30 344 0.0 3.2 0.00 0.08 0.08 57 1013.9
20260904203949 30 316 1.6 4.8 0.00 0.08 0.08 57 1013.9
20260904203446 30 1 4.8 6.4 0.00 0.08 0.08 57 1013.9
20260904202942 30 298 3.2 6.4 0.00 0.08 0.08 57 1014.0
20260904202437 30 327 0.0 3.2 0.00 0.08 0.08 58 1014.0
20260904201933 30 303 1.6 3.2 0.00 0.08 0.08 58 1014.1
20260904201428 30 294 0.0 0.0 0.00 0.08 0.08 59 1014.2
20260904200924 30 1 0.0 1.6 0.00 0.08 0.08 59 1014.3
20260904200422 30 348 3.2 4.8 0.00 0.08 0.08 58 1014.3
20260904195917 30 303 1.6 9.7 0.00 0.08 0.08 58 1014.2
20260904195416 30 357 3.2 4.8 0.00 0.08 0.08 58 1014.4
20260904194916 30 289 1.6 3.2 0.00 0.08 0.08 59 1014.3
20260904194415 30 30 1.6 3.2 0.00 0.08 0.08 58 1014.4
20260904193911 30 325 1.6 3.2 0.00 0.08 0.08 59 1014.5
20260904193406 31 311 1.6 3.2 0.00 0.08 0.08 57 1014.8
20260904192901 31 254 1.6 3.2 0.00 0.08 0.08 56 1014.6
20260904192356 31 327 1.6 4.8 0.00 0.08 0.08 57 1014.5
20260904191853 31 350 0.0 6.4 0.00 0.08 0.08 56 1014.7
20260904191349 31 209 3.2 6.4 0.00 0.08 0.08 58 1014.7
20260904190845 30 302 0.0 6.4 0.00 0.08 0.08 58 1014.6
20260904190341 31 335 1.6 3.2 0.00 0.08 0.08 57 1014.6
20260904185837 31 7 4.8 6.4 0.00 0.08 0.08 57 1014.8
20260904185332 31 2 1.6 4.8 0.00 0.08 0.08 57 1014.5
20260904184832 30 323 0.0 4.8 0.00 0.08 0.08 58 1014.7
20260904184327 30 290 1.6 6.4 0.00 0.08 0.08 57 1015.1
20260904183822 30 306 1.6 4.8 0.00 0.08 0.08 58 1015.0
20260904183317 30 320 0.0 4.8 0.00 0.08 0.08 58 1014.9
20260904182813 30 313 0.0 6.4 0.00 0.08 0.08 58 1014.8
20260904182308 30 314 0.0 4.8 0.00 0.08 0.08 58 1015.0
20260904181803 30 343 0.0 3.2 0.00 0.08 0.08 59 1014.9
20260904181303 30 352 0.0 0.0 0.00 0.08 0.08 59 1015.0
20260904180758 30 341 0.0 3.2 0.00 0.08 0.08 59 1014.9
20260904180254 29 279 1.6 3.2 0.00 0.08 0.08 58 1015.0
20260904175752 30 264 0.0 6.4 0.00 0.08 0.08 57 1014.9
20260904175251 30 337 6.4 11.3 0.00 0.08 0.08 57 1015.1
20260904174746 30 321 0.0 3.2 0.00 0.08 0.08 60 1014.9
20260904174242 30 328 0.0 6.4 0.00 0.08 0.08 60 1015.1
20260904173738 30 332 0.0 4.8 0.00 0.08 0.08 60 1014.9
20260904173238 30 237 4.8 6.4 0.00 0.08 0.08 59 1015.0
20260904172735 30 345 0.0 4.8 0.00 0.08 0.08 61 1015.0
20260904172233 29 285 1.6 3.2 0.00 0.08 0.08 61 1015.0
20260904171728 29 350 0.0 1.6 0.00 0.08 0.08 60 1014.8
20260904171223 30 334 1.6 6.4 0.00 0.08 0.08 59 1014.9
20260904170720 30 245 3.2 6.4 0.00 0.08 0.08 58 1015.0
20260904170215 30 1 4.8 9.7 0.00 0.08 0.08 58 1015.0
20260904165715 30 337 3.2 6.4 0.00 0.08 0.08 57 1015.1
20260904165215 30 334 3.2 4.8 0.00 0.08 0.08 58 1014.9
20260904164709 30 352 4.8 9.7 0.00 0.08 0.08 58 1015.0
20260904164209 30 352 1.6 1.6 0.00 0.08 0.08 58 1015.1
20260904163706 30 225 1.6 4.8 0.00 0.08 0.08 58 1015.1
20260904163201 30 256 1.6 9.7 0.00 0.08 0.08 57 1015.1
20260904162659 30 9 6.4 16.1 0.00 0.08 0.08 57 1015.0
20260904162155 30 319 1.6 14.5 0.00 0.08 0.08 57 1015.2
20260904161650 30 331 0.0 3.2 0.00 0.08 0.08 58 1015.0
20260904161145 30 321 0.0 3.2 0.00 0.08 0.08 59 1014.9
20260904160641 30 3 3.2 9.7 0.00 0.08 0.08 59 1015.3
20260904160137 30 354 3.2 9.7 0.00 0.08 0.08 59 1015.1
20260904155631 30 332 3.2 6.4 0.00 0.08 0.08 60 1015.3
20260904155125 30 349 1.6 11.3 0.00 0.08 0.08 60 1015.3
20260904154624 30 321 1.6 1.6 0.00 0.08 0.08 61 1015.0
20260904154124 30 352 3.2 3.2 0.00 0.08 0.08 61 1015.2
20260904153619 30 329 1.6 4.8 0.00 0.08 0.08 62 1015.2
20260904153115 30 358 3.2 4.8 0.00 0.08 0.08 63 1015.4
20260904152611 30 10 0.0 1.6 0.00 0.08 0.08 63 1015.5
20260904152106 30 347 1.6 6.4 0.00 0.08 0.08 64 1015.4
20260904151601 30 336 1.6 3.2 0.00 0.08 0.08 65 1015.5
20260904151100 29 313 1.6 9.7 0.00 0.08 0.08 65 1015.2
20260904150556 29 344 3.2 6.4 0.00 0.08 0.08 66 1015.5
20260904150056 29 10 4.8 6.4 0.00 0.08 0.08 67 1015.4
20260904145555 29 20 1.6 4.8 0.00 0.08 0.08 68 1015.4
20260904145050 28 359 4.8 12.9 0.00 0.08 0.08 68 1015.4
20260904144546 29 264 4.8 6.4 0.00 0.08 0.08 69 1015.5
20260904144042 28 337 1.6 3.2 0.00 0.08 0.08 71 1015.5
20260904143537 28 350 3.2 4.8 0.00 0.08 0.08 72 1015.4
20260904143034 28 353 3.2 11.3 0.00 0.08 0.08 74 1015.3
20260904142530 28 321 0.0 4.8 0.00 0.08 0.08 75 1015.2
20260904142025 28 5 3.2 3.2 0.00 0.08 0.08 76 1015.5
20260904141520 27 257 3.2 4.8 0.00 0.08 0.08 77 1015.3
20260904141016 27 333 3.2 11.3 0.00 0.08 0.08 79 1015.4
20260904140510 28 337 3.2 4.8 0.00 0.08 0.08 79 1015.4
20260904140010 27 277 0.0 6.4 0.00 0.08 0.08 80 1015.2
20260904135503 27 302 4.8 6.4 0.00 0.08 0.08 81 1015.1
20260904135000 27 354 0.0 11.3 0.00 0.08 0.08 82 1015.3
20260904134500 27 348 1.6 3.2 0.00 0.08 0.08 83 1015.2
20260904133954 27 353 3.2 3.2 0.00 0.08 0.08 83 1015.2
20260904133449 27 338 3.2 9.7 0.00 0.08 0.08 84 1015.2
20260904132945 26 1 1.6 9.7 0.00 0.08 0.08 85 1015.1
20260904132440 26 355 4.8 6.4 0.00 0.08 0.08 86 1015.1
20260904131940 26 17 3.2 11.3 0.00 0.08 0.08 87 1015.0
20260904131435 26 347 0.0 11.3 0.00 0.08 0.08 88 1015.0
20260904130931 26 10 6.4 6.4 0.00 0.08 0.08 89 1015.0
20260904130429 26 6 3.2 6.4 0.00 0.08 0.08 90 1015.1
20260904125924 26 345 0.0 1.6 0.00 0.08 0.08 91 1014.8
20260904125421 26 226 1.6 6.4 0.00 0.08 0.08 92 1014.8
20260904124920 25 342 3.2 4.8 0.00 0.08 0.08 92 1015.1
20260904124417 25 353 3.2 14.5 0.00 0.08 0.08 93 1015.1
20260904123912 25 339 1.6 3.2 0.00 0.08 0.08 93 1014.9
20260904123406 25 332 3.2 4.8 0.00 0.08 0.08 93 1014.9
20260904122903 25 12 0.0 3.2 0.00 0.08 0.08 93 1015.1
20260904122401 25 354 0.0 4.8 0.00 0.08 0.08 94 1015.0
20260904121856 25 300 1.6 3.2 0.00 0.08 0.08 94 1015.0
20260904121353 25 341 1.6 3.2 0.00 0.08 0.08 95 1014.8
20260904120848 24 7 0.0 0.0 0.00 0.08 0.08 95 1014.7
20260904120344 24 338 0.0 4.8 0.00 0.08 0.08 95 1014.8
20260904115839 24 336 0.0 4.8 0.00 0.08 0.08 95 1015.0
20260904115334 23 306 1.6 3.2 0.00 0.08 0.08 95 1014.9
20260904114829 23 336 0.0 0.0 0.00 0.08 0.08 95 1014.8
20260904114323 23 272 0.0 0.0 0.00 0.08 0.08 95 1014.7
20260904113819 23 296 0.0 4.8 0.00 0.08 0.08 95 1014.9
20260904113318 23 327 0.0 3.2 0.00 0.08 0.08 95 1014.7
20260904112813 23 345 0.0 3.2 0.00 0.08 0.08 95 1014.6
20260904112308 23 330 0.0 1.6 0.00 0.08 0.08 95 1014.6
20260904111804 23 254 1.6 1.6 0.00 0.08 0.08 95 1014.6
20260904111259 23 354 0.0 1.6 0.00 0.08 0.08 95 1014.3
20260904110755 23 347 0.0 0.0 0.00 0.08 0.08 95 1014.3
20260904110254 23 329 0.0 3.2 0.00 0.08 0.08 95 1014.3
20260904105750 23 334 0.0 3.2 0.00 0.08 0.08 95 1014.2
20260904105250 23 330 0.0 0.0 0.00 0.08 0.08 95 1014.3
20260904104745 23 336 0.0 1.6 0.00 0.08 0.08 95 1014.2
20260904104241 23 309 0.0 0.0 0.00 0.08 0.08 95 1014.2
20260904103737 23 331 0.0 0.0 0.00 0.08 0.08 95 1014.0
20260904103232 23 323 0.0 1.6 0.00 0.08 0.08 95 1014.1